This demonstration page uses our WeatherBlox Daily Observations layout. Learn more.

39.29038, -76.61219

Hourly Observations for December 11, 2019

Temp ( °F °C ) Dew Point ( °F °C ) Humidity (%) Winds ( mph kmh ) Pressure ( in mb ) Visibility ( mi km ) Precip ( " mm )
12:54 am 00:54 undefined 36 2.2 31 -0.6 82 82 undefined N/A 30.19 1022 N/A 0.02 0.508
1:54 am 01:54 undefined 37 2.8 29 -1.7 73 73 undefined N/A 30.22 1023 N/A 0.01 0.254
2:54 am 02:54 undefined 36 2.2 27 -2.8 70 70 undefined N/A 30.24 1024 N/A 0 0
3:54 am 03:54 undefined 34 1.1 29 -1.7 82 82 undefined N/A 30.23 1024 N/A 0.01 0.254
4:54 am 04:54 undefined 35 1.7 28 -2.2 76 76 undefined N/A 30.25 1024 N/A 0 0
5:54 am 05:54 undefined 35 1.7 28 -2.2 76 76 undefined N/A 30.29 1026 N/A 0 0
6:54 am 06:54 undefined 35 1.7 27 -2.8 72 72 undefined N/A 30.3 1026 N/A 0 0
7:54 am 07:54 undefined 36 2.2 26 -3.3 67 67 undefined N/A 30.33 1027 N/A 0 0
8:54 am 08:54 undefined 36 2.2 25 -3.9 64 64 undefined N/A 30.37 1029 N/A 0 0
9:54 am 09:54 undefined 37 2.8 21 -6.1 52 52 undefined N/A 30.39 1029 N/A 0 0
10:54 am 10:54 undefined 38 3.3 19 -7.2 46 46 undefined N/A 30.38 1029 N/A 0 0
11:54 am 11:54 undefined 38 3.3 17 -8.3 43 43 undefined N/A 30.37 1028 N/A 0 0
12:54 pm 12:54 undefined 38 3.3 14 -10 37 37 undefined N/A 30.36 1028 N/A 0 0
1:54 pm 13:54 undefined 39 3.9 17 -8.3 41 41 undefined N/A 30.35 1028 N/A 0 0
2:54 pm 14:54 undefined 39 3.9 18 -7.8 43 43 undefined N/A 30.31 1027 N/A 0 0
3:54 pm 15:54 undefined 39 3.9 15 -9.4 38 38 undefined N/A 30.36 1028 N/A 0 0
4:54 pm 16:54 undefined 38 3.3 14 -10 37 37 undefined N/A 30.4 1029 N/A 0 0
5:54 pm 17:54 undefined 38 3.3 15 -9.4 39 39 undefined N/A 30.42 1030 N/A 0 0
6:54 pm 18:54 undefined 38 3.3 13 -10.6 36 36 undefined N/A 30.45 1031 N/A 0 0
7:54 pm 19:54 undefined 37 2.8 12 -11.1 36 36 undefined N/A 30.47 1032 N/A 0 0
8:54 pm 20:54 undefined 36 2.2 14 -10 40 40 undefined N/A 30.5 1033 N/A 0 0
9:54 pm 21:54 undefined 35 1.7 14 -10 42 42 undefined N/A 30.53 1034 N/A 0 0
10:54 pm 22:54 undefined 34 1.1 15 -9.4 46 46 undefined N/A 30.55 1034 N/A 0 0
11:54 pm 23:54 undefined 33 0.6 15 -9.4 47 47 undefined N/A 30.56 1035 N/A 0 0

Powered by AerisWeather